Location: Fosso Corella
(43.9167°N, 11.5667°E)
Time: 12:34:19
(UTC+00:00)

SL-4 R/B - Pass Details

Date: 07 June 2020
Orbit: 428 x 666 km, 51.6° (Epoch: 01 July)

Event Time Altitude Azimuth Distance (km) Brightness Sun altitude
Rises 02:48:47 0° 292° (WNW) 2,991 5.5 -7.0°
Reaches altitude 10° 02:51:42 10° 276° (W) 2,054 4.5 -6.6°
Maximum altitude 02:55:05 20° 230° (SW) 1,479 3.6 -6.1°
Drops below altitude 10° 02:58:22 10° 184° (S) 1,969 4.4 -5.7°
Sets 03:01:05 0° 167° (SSE) 2,825 5.4 -5.3°
